www.pogodaiklimat.ru

Погода и климат >> Архив погоды >> Испания >> Ла-Корунья


АРХИВ ПОГОДЫ в Ла-Корунье

Время (UTC), дата Ветер
(напр.,м/с)
 
Видим.   Явления Облачность Т
(С)
Тd
(С)
f
(%)
Тe
(С)
Тes
(С)
Комфортность P
(гПа)
Po
(гПа)
Тmin
(С)
Tmax
(С)
R
(мм)
R24
(мм)
S
(см)
19 11.09 СВ 6 15 км н/о +16.8 +12.7 77 +16 +16 по сезону 1028.4 1020.4
20 11.09 СВ 6 18 км н/о +17.0 +12.5 75 +16 +16 по сезону 1028.7 1020.7
21 11.09 СВ 4 20 км 1/1 300 м
[Cu hum]
+16.6 +12.5 77 +16 +16 по сезону 1028.9 1020.9
22 11.09 С 3 15 км н/о +16.0 +12.7 81 +16 +16 по сезону 1028.8 1020.7
23 11.09 СВ 4 18 км н/о +16.1 +12.5 79 +15 +15 по сезону 1028.6 1020.5
00 12.09 СВ 3 18 км ясно +15.6 +12.5 82 +15 +15 по сезону 1028.3 1020.2
01 12.09 В 2 13 км н/о +15.3 +12.6 84 +15 +15 по сезону 1028.7 1020.6
02 12.09 В 1 15 км н/о +15.0 +12.5 85 +15 +15 по сезону 1028.2 1020.1
03 12.09 В 1 16 км ясно +14.4 +11.9 85 +15 +15 по сезону 1028.3 1020.2
04 12.09 В 1 14 км н/о +14.2 +11.9 86 +15 +15 по сезону 1027.8 1019.7
05 12.09 ЮВ 2 14 км н/о +14.3 +12.0 86 +14 +14 по сезону 1027.9 1019.8
06 12.09 ЮВ 1 21 км ясно +14.2 +12.1 87 +14 +14 по сезону 1028.1 1020.0 +14.1
07 12.09 ЮВ 2 14 км н/о +14.3 +11.8 85 +14 +14 прохладно 1028.6 1020.5
08 12.09 ЮВ 2 19 км н/о +16.5 +12.3 76 +17 +17 по сезону 1028.9 1020.8
09 12.09 В 1 25 км ясно +18.9 +12.4 66 +21 +26 комфорт 1029.0 1021.0
10 12.09 В 2 20 км н/о +20.9 +11.8 56 +24 +24 комфорт 1029.0 1021.1
11 12.09 С 2 20 км н/о +22.4 +12.6 54 +25 +25 комфорт 1029.0 1021.1
12 12.09 С 2 25 км 1/0
[Ci fib]
+22.6 +13.4 56 +26 +39 жарко 1028.7 1020.8
13 12.09 С 3 20 км н/о +22.5 +13.3 56 +25 +25 комфорт 1028.2 1020.3
14 12.09 С 2 20 км н/о +22.0 +13.1 57 +25 +25 комфорт 1027.6 1019.7
15 12.09 СЗ 2 20 км н/о +23.1 +13.3 54 +26 +26 жарко 1026.9 1019.0
16 12.09 С 3 20 км н/о +21.7 +13.3 59 +24 +24 комфорт 1026.4 1018.5
17 12.09 З 2 19 км н/о +20.6 +13.5 64 +24 +24 комфорт 1026.4 1018.5
18 12.09 СВ 3 20 км н/о +21.0 +13.9 64 +24 +24 комфорт 1026.6 1018.7 +23.3
19 12.09 С 3 19 км н/о +19.5 +14.1 71 +21 +21 комфорт 1026.9 1019.0
20 12.09 СВ 5 19 км н/о +18.9 +14.2 74 +20 +20 тепло 1027.6 1019.6
21 12.09 СВ 4 20 км ясно +18.4 +14.3 77 +19 +19 тепло 1028.0 1020.0
22 12.09 СВ 3 15 км н/о +17.6 +14.3 81 +18 +18 тепло 1028.1 1020.1
23 12.09 СВ 2 12 км н/о +17.0 +14.3 84 +17 +17 по сезону 1027.8 1019.8
00 13.09 СВ 5 18 км ясно +17.9 +14.2 79 +18 +18 тепло 1027.5 1019.5
01 13.09 СВ 4 19 км н/о +17.8 +14.3 80 +18 +18 тепло 1027.3 1019.3
02 13.09 В 2 14 км н/о +17.2 +14.3 83 +17 +17 тепло 1027.2 1019.2
03 13.09 В 1 18 км ясно +16.9 +14.0 83 +18 +18 тепло 1026.8 1018.8
04 13.09 В 1 16 км н/о +16.4 +13.9 85 +17 +17 тепло 1026.7 1018.7
05 13.09 В 2 18 км н/о +16.5 +13.8 84 +17 +17 тепло 1026.8 1018.8
06 13.09 ЮВ 1 15 км 1/1 300 м
[Sc]
+16.4 +13.5 83 +17 +17 тепло 1026.9 1018.9 +16.3
07 13.09 В 2 19 км н/о +16.5 +13.8 84 +17 +17 по сезону 1027.0 1019.0
08 13.09 В 2 18 км н/о +19.2 +14.2 73 +21 +21 комфорт 1027.0 1019.0
09 13.09 В 2 15 км 1/1 300 м
[Sc]
+20.9 +14.3 66 +25 +29 комфорт 1026.9 1019.0
10 13.09 В 2 18 км н/о +22.5 +15.1 63 +26 +26 жарко 1026.6 1018.7
11 13.09 СВ 3 20 км н/о +24.1 +15.3 58 +27 +27 жарко 1026.1 1018.3
12 13.09 СВ 3 20 км 1/1 300 м
[Cu hum]
+25.0 +14.8 53 +28 +38 жарко 1025.6 1017.8
13 13.09 СВ 8 20 км н/о +25.1 +14.5 52 +28 +28 жарко 1025.2 1017.4
14 13.09 СВ 9 20 км н/о +24.9 +14.7 53 +28 +28 жарко 1024.1 1016.3
15 13.09 СВ 7 20 км н/о +24.5 +15.1 56 +27 +27 жарко 1023.8 1016.0
16 13.09 СВ 6 20 км н/о +23.5 +15.5 61 +27 +27 душно 1023.8 1016.0
17 13.09 СВ 8 20 км н/о +22.4 +15.3 64 +26 +26 жарко 1023.4 1015.6
18 13.09 СВ 6 20 км н/о +21.4 +14.8 66 +24 +24 комфорт 1023.7 1015.8 +25.4
19 13.09 СВ 4 20 км н/о +20.8 +14.7 68 +24 +24 комфорт 1024.1 1016.2
20 13.09 СВ 2 19 км н/о +20.1 +15.1 73 +23 +23 комфорт 1024.3 1016.4
21 13.09 СВ 4 18 км ясно +19.9 +14.9 73 +22 +22 комфорт 1024.3 1016.4
22 13.09 В 3 19 км н/о +19.7 +14.7 73 +22 +22 комфорт 1024.2 1016.3
23 13.09 СВ 3 19 км н/о +19.2 +14.2 73 +21 +21 комфорт 1024.3 1016.4
00 14.09 В 2 20 км ясно +19.0 +14.3 74 +21 +21 комфорт 1024.3 1016.4
01 14.09 В 2 20 км н/о +19.0 +14.7 76 +21 +21 комфорт 1024.5 1016.6
02 14.09 СВ 1 15 км н/о +18.2 +14.5 79 +20 +20 тепло 1024.4 1016.4
03 14.09 В 2 18 км ясно +18.2 +15.1 82 +19 +19 тепло 1024.4 1016.4
04 14.09 СВ 2 17 км н/о +18.0 +15.1 83 +19 +19 тепло 1024.0 1016.0
05 14.09 В 2 18 км н/о +17.9 +15.2 84 +18 +18 тепло 1024.0 1016.0
06 14.09 В 2 20 км 3/1 600 м
[Sc Ac trans]
+17.8 +15.2 85 +19 +19 тепло 1024.4 1016.4 +17.8
07 14.09 В 2 17 км н/о +17.8 +15.4 86 +19 +19 тепло 1024.7 1016.7
08 14.09 В 2 20 км н/о +20.1 +15.9 77 +23 +23 комфорт 1025.0 1017.1
09 14.09 В 2 22 км 1/0
[Ci fib]
+22.0 +16.0 69 +26 +31 душно 1025.0 1017.1
10 14.09 В 2 19 км н/о +23.1 +16.2 65 +28 +28 душно 1024.7 1016.9
11 14.09 СВ 2 19 км н/о +23.6 +16.4 64 +27 +27 жарко 1024.2 1016.4
12 14.09 С 4 22 км 1/0
[Ci fib]
+22.9 +15.7 64 +27 +36 душно 1023.6 1015.8
13 14.09 С 4 19 км н/о +20.1 +15.7 76 +23 +23 комфорт 1022.8 1014.9
14 14.09 С 5 15 км н/о +19.8 +16.1 79 +22 +22 комфорт 1021.9 1014.0
15 14.09 С 5 14 км н/о +19.2 +16.1 82 +21 +21 комфорт 1021.6 1013.7
16 14.09 С 5 11 км н/о +18.2 +15.8 86 +18 +18 по сезону 1021.4 1013.5
17 14.09 С 4 7000 м н/о +18.0 +16.2 89 +18 +18 по сезону 1021.7 1013.8
18 14.09 С 5 н/о н/о +17.1 +15.8 92 +16 +16 прохладно 1022.0 1014.0 +24.4
19 14.09 С 4 6000 м н/о +17.3 +15.8 91 +17 +17 по сезону 1022.4 1014.4
20 14.09 СВ 4 8000 м н/о +18.0 +16.5 91 +18 +18 по сезону 1022.3 1014.4
21 14.09 С 3 15 км ясно +18.5 +15.9 85 +20 +20 тепло 1022.5 1014.6
22 14.09 С 3 8000 м н/о +17.7 +15.7 88 +18 +18 тепло 1022.3 1014.3
23 14.09 С 2 8000 м н/о +17.3 +15.6 90 +18 +18 тепло 1022.1 1014.1
00 15.09 С 1 15 км ясно +17.3 +15.5 89 +18 +18 тепло 1021.9 1013.9
01 15.09 З 1 9000 м н/о +17.2 +15.4 89 +18 +18 тепло 1021.8 1013.8
02 15.09 З 1 9000 м н/о +17.3 +15.6 90 +19 +19 тепло 1021.6 1013.6
03 15.09 штиль 0 15 км ясно +16.8 +15.1 90 +17 +17 по сезону 1021.4 1013.4
04 15.09 штиль 0 6000 м н/о +16.6 +15.3 92 +16 +16 тепло 1021.2 1013.2
05 15.09 СВ 1 6000 м н/о +16.6 +15.1 91 +18 +18 тепло 1021.3 1013.3
06 15.09 ЮЗ 1 10 км 1/0
[Ac lent Cc]
+16.5 +15.2 92 +18 +18 тепло 1021.4 1013.4 +16.3
07 15.09 ЮВ 1 8000 м н/о +16.8 +15.8 94 +18 +18 по сезону 1021.6 1013.6
08 15.09 СВ 1 14 км н/о +19.0 +16.6 86 +22 +22 комфорт 1021.7 1013.8
09 15.09 СВ 1 2000 м мгла {туман} 1/0
[Ac lent]
+20.9 +16.1 74 +25 +30 комфорт 1021.9 1014.0
10 15.09 С 1 15 км н/о +21.6 +16.3 72 +25 +25 комфорт 1022.0 1014.2
11 15.09 С 2 19 км н/о +22.3 +16.6 70 +27 +27 душно 1021.7 1013.9
12 15.09 С 3 18 км н/о +22.0 +16.5 71 +26 +26 душно 1020.9 1013.1
13 15.09 С 4 18 км н/о +20.8 +16.4 76 +24 +24 комфорт 1020.4 1012.5
14 15.09 С 3 17 км н/о +20.4 +16.4 78 +24 +24 комфорт 1019.8 1011.9
15 15.09 С 5 14 км н/о +19.3 +16.5 84 +21 +21 комфорт 1019.4 1011.5
16 15.09 С 4 12 км н/о +18.2 +16.0 87 +18 +18 по сезону 1019.2 1011.3
17 15.09 С 5 6000 м н/о +17.7 +16.4 92 +17 +17 по сезону 1019.2 1011.3
18 15.09 С 4 н/о н/о +17.5 +16.4 93 +17 +17 по сезону 1019.5 1011.6 +22.9
19 15.09 С 3 4900 м н/о +16.9 +15.9 94 +17 +17 по сезону 1019.9 1011.9
20 15.09 С 2 7000 м н/о +17.0 +15.5 91 +17 +17 по сезону 1020.1 1012.1
21 15.09 СЗ 2 18 км ясно +17.3 +15.5 89 +18 +18 по сезону 1020.3 1012.3
22 15.09 С 3 9000 м н/о +16.9 +15.8 93 +17 +17 тепло 1020.4 1012.4
23 15.09 СЗ 2 9000 м н/о +16.8 +15.7 93 +17 +17 по сезону 1020.4 1012.4
00 16.09 СЗ 1 15 км 1/0
[Ci fib]
+17.1 +15.6 91 +18 +18 тепло 1020.4 1012.4
01 16.09 З 2 11 км н/о +17.0 +15.5 91 +18 +18 тепло 1020.5 1012.5
02 16.09 С 1 13 км н/о +17.2 +15.4 89 +19 +19 тепло 1020.1 1012.1
03 16.09 СВ 2 12 км ясно +17.5 +15.8 90 +18 +18 тепло 1019.7 1011.8
04 16.09 СВ 1 9000 м н/о +17.2 +15.9 92 +19 +19 тепло 1019.4 1011.5
05 16.09 штиль 0 8000 м н/о +17.0 +15.5 91 +17 +17 тепло 1019.4 1011.4
06 16.09 З 1 10 км 3/3 600 м
[Sc]
+17.1 +16.0 93 +19 +19 тепло 1019.4 1011.5 +16.6
07 16.09 З 2 8000 м н/о +17.0 +15.9 93 +18 +18 по сезону 1019.9 1011.9
08 16.09 СЗ 1 12 км н/о +18.5 +16.5 88 +20 +20 тепло 1020.2 1012.3
09 16.09 С 1 2000 м туман на расстоянии 4/3 300 м
[Sc Ac trans]
+19.9 +16.9 83 +24 +27 комфорт 1020.4 1012.5
10 16.09 С 2 17 км н/о +22.1 +17.2 74 +27 +27 душно 1020.2 1012.4
11 16.09 С 2 13 км н/о +20.1 +16.7 81 +23 +23 комфорт 1020.0 1012.1
12 16.09 СЗ 2 15 км {туман} 3/1 300 м
[Cu Sc Ac lent]
+20.6 +17.0 80 +25 +33 комфорт 1019.8 1011.9
13 16.09 С 5 13 км н/о +19.8 +17.0 84 +22 +22 комфорт 1019.2 1011.3
14 16.09 СЗ 4 13 км н/о +19.9 +16.9 83 +23 +23 комфорт 1018.8 1010.9
15 16.09 С 6 11 км слаб. морось н/о +18.9 +16.9 88 +20 +20 по сезону 1018.3 1010.4 0.0
16 16.09 С 7 12 км в посл. час морось н/о +18.9 +16.9 88 +20 +20 тепло 1017.8 1009.9 0.0
17 16.09 С 4 11 км н/о +18.4 +16.4 88 +19 +19 по сезону 1017.5 1009.6
18 16.09 СЗ 2 11 км дымка н/о +18.3 +16.3 88 +20 +20 тепло 1017.9 1010.0 +23.2 0.0
19 16.09 СЗ 1 12 км н/о +18.4 +16.0 86 +20 +20 тепло 1018.0 1010.1
20 16.09 СЗ 2 15 км н/о +19.3 +16.5 84 +22 +22 комфорт 1018.5 1010.6
21 16.09 С 1 15 км 1/0
[Ac As]
+19.3 +16.3 83 +22 +22 комфорт 1018.8 1010.9
22 16.09 З 1 12 км н/о +18.9 +16.3 85 +22 +22 комфорт 1018.5 1010.6
23 16.09 В 1 12 км н/о +18.6 +16.6 88 +21 +21 комфорт 1018.4 1010.5
00 17.09 З 1 15 км 1/0 1500 м
[Ac trans]
+18.0 +15.8 87 +20 +20 тепло 1018.1 1010.2
01 17.09 СЗ 1 7000 м н/о +17.6 +15.8 89 +19 +19 тепло 1018.1 1010.2
02 17.09 Ю 1 11 км н/о +17.8 +16.1 90 +19 +19 тепло 1017.7 1009.8
03 17.09 В 2 15 км 1/0
[Ac trans]
+18.3 +16.8 91 +19 +19 тепло 1017.3 1009.4
04 17.09 В 1 14 км н/о +18.6 +16.7 89 +21 +21 комфорт 1017.1 1009.2
05 17.09 ЮВ 2 15 км н/о +18.6 +16.7 89 +20 +20 тепло 1016.9 1009.0
06 17.09 ЮВ 2 12 км 9/1 600 м
[Sc Ac und]
+18.7 +17.0 90 +21 +21 комфорт 1017.1 1009.2 +17.6
07 17.09 В 1 14 км н/о +19.2 +17.2 88 +22 +22 комфорт 1017.3 1009.4
08 17.09 ЮВ 1 15 км н/о +19.8 +17.4 86 +23 +23 комфорт 1017.5 1009.6
09 17.09 В 2 18 км 9/0
[Ac As]
+20.5 +17.3 82 +25 +26 комфорт 1017.6 1009.8
10 17.09 В 2 17 км в посл. час дождь н/о +21.6 +18.0 80 +26 +26 душно 1017.5 1009.7 0.0
11 17.09 С 2 13 км н/о +22.0 +17.4 75 +26 +26 душно 1017.4 1009.6
12 17.09 С 2 20 км 8/1 300 м
[Cu med, cong Ac trans Cs]
+24.1 +17.8 68 +28 +35 душно 1016.8 1009.1 0.0
13 17.09 С 3 19 км н/о +23.6 +17.6 69 +28 +28 душно 1016.3 1008.6
14 17.09 СЗ 2 19 км н/о +24.2 +17.4 66 +28 +28 душно 1015.9 1008.2
15 17.09 З 1 17 км н/о +22.7 +16.9 70 +27 +27 душно 1015.6 1007.8
16 17.09 З 1 16 км н/о +22.9 +17.6 72 +28 +28 душно 1015.8 1008.0
17 17.09 В 2 9000 м в посл. час дождь н/о +21.9 +17.3 75 +26 +26 душно 1015.9 1008.1 0.0
18 17.09 З 2 6000 м слаб. дождь {морось} н/о +20.8 +17.4 81 +25 +25 комфорт 1015.5 1007.7 +24.6 0.0
19 17.09 ЮВ 2 14 км слаб. морось н/о +20.2 +17.8 86 +24 +24 комфорт 1015.4 1007.6 0.0
20 17.09 СВ 1 8000 м н/о +19.9 +16.9 83 +24 +24 комфорт 1016.1 1008.3
21 17.09 В 2 12 км 6/5 300 м
[Cu Sc Ac cuf]
+20.0 +17.6 86 +24 +24 комфорт 1016.5 1008.7 0.0
22 17.09 В 2 17 км н/о +20.7 +17.7 83 +25 +25 комфорт 1016.1 1008.3 0.0
23 17.09 СВ 1 15 км н/о +20.4 +17.4 83 +25 +25 комфорт 1015.6 1007.8
00 18.09 СЗ 1 15 км 1/1 600 м
[Sc diur, vesp]
+19.2 +17.2 88 +23 +23 комфорт 1015.9 1008.0 0.0
01 18.09 ЮВ 2 12 км н/о +19.1 +17.1 88 +22 +22 комфорт 1016.3 1008.4
02 18.09 ЮВ 2 13 км н/о +18.9 +17.0 89 +21 +21 комфорт 1016.0 1008.1
03 18.09 ЮВ 2 15 км 1/1 600 м
[Sc Ci fib]
+18.4 +16.9 91 +20 +20 тепло 1016.0 1008.1
04 18.09 ЮВ 2 10 км н/о +17.9 +16.4 91 +18 +18 тепло 1015.8 1007.9
05 18.09 ЮВ 1 13 км н/о +18.0 +16.5 91 +19 +19 тепло 1015.8 1007.9
06 18.09 ЮВ 3 15 км 5/4 600 м
[Sc Ac trans Cc]
+18.0 +16.0 88 +18 +18 тепло 1016.2 1008.3 +17.8
07 18.09 В 2 13 км н/о +17.8 +16.0 89 +19 +19 тепло 1016.7 1008.8
08 18.09 ЮВ 2 16 км н/о +18.7 +16.1 85 +20 +20 тепло 1017.1 1009.2
09 18.09 В 2 15 км 8/5 600 м
[Sc Ac trans Cc]
+19.6 +16.4 82 +23 +24 комфорт 1017.3 1009.4
12 18.09 СВ 2 18 км 3/1 300 м
[Cu hum Ac cuf Cc]
+25.5 +17.4 61 +30 +39 душно 1017.1 1009.4
13 18.09 С 2 18 км н/о +23.1 +16.4 66 +28 +28 душно 1017.2 1009.4
14 18.09 СЗ 2 19 км н/о +23.3 +16.6 66 +28 +28 душно 1016.7 1008.9
15 18.09 СЗ 3 16 км н/о +22.0 +16.7 72 +26 +26 душно 1016.3 1008.5
16 18.09 З 2 18 км н/о +22.0 +16.7 72 +26 +26 душно 1016.1 1008.3
17 18.09 З 2 16 км н/о +22.4 +16.9 71 +27 +27 душно 1016.2 1008.4
18 18.09 СЗ 1 18 км н/о +22.1 +16.8 72 +26 +26 душно 1016.4 1008.6 +25.8
19 18.09 С 2 19 км н/о +21.3 +16.7 75 +25 +25 комфорт 1016.8 1009.0

 

Местоположение метеостанции Ла-Корунья (Испания): широта 43.37 долгота -8.42 высота над уровнем моря 67 м.

В архиве по умолчанию представлена погода в Ла-Корунье за последнюю неделю. Архивные данные за месяц целиком и за предыдущие месяцы, начиная с января 2011 года, Вы можете получить, выбрав интересующий диапазон дат из раскрывающегося списка и нажав кнопку "Ввод!".


*Определитесь, кто Вы:
робот инопланетянин человек

Внимание! Время в таблицах - всемирное. Для получения местного времени необходимо прибавить поправку, которая равна 1 ч.

Смотрите также архив погоды в соседних городах и на ближайших метеорологических станциях:

Погода в Сантьяго (Испания) (52 км)
Погода в Сантьяго-де-Компостеле (Испания) (56 км)
Погода на Кабо Вилан (Испания) (68 км)
Погода в Падроне (Испания) (72 км)
Погода в Эстака-де-Баресе (Испания) (76 км)
Погода в Луго (Испания) (83 км)
Погода в Фистерре (Испания) (87 км)
Погода в Понтеведре (Испания) (106 км)
Погода в Карбальино (Испания) (109 км)
Погода в Кастрополе (Испания) (114 км)

Пояснения к столбцам:

Ветер - указаны скорость ветра в м/с - средняя за 10 мин, порывы в срок и между сроками (в фигурных скобках) и направление, откуда дует ветер: С - северный, СВ - северо-восточный, В - восточный, ЮВ - юго-восточный, Ю - южный, ЮЗ - юго-западный, З - западный, СЗ - северо-западный.
Видимость - горизонтальная дальность видимости в метрах или километрах. При видимости от 1 до 10 км при отсутствии осадков обычно наблюдается дымка, при ухудшении видимости до 1 км и менее - туман. В сухую погоду видимость может ухудшаться дымом, пылью или мглою.
Явления - указаны атмосферные явления, наблюдавшиеся в срок или в последний час перед сроком; фигурными скобками обозначены явления, наблюдавшиеся между сроками (за 1-3 часа до срока); квадратными скобками обозначены град или гололедные отложения с указанием их диаметра в мм.
Облачность - указаны через наклонную черту общая и нижняя облачность в баллах и высота нижней границы облаков в метрах; квадратными скобками обозначены формы облаков: Ci - перистые, Cs - перисто-слоистые, Cc - перисто-кучевые, Ac - высококучевые, As - высокослоистые, Sc - слоисто-кучевые, Ns - слоисто-дождевые, Cu - кучевые, Cb - кучево-дождевые. Подробнее классификацию облаков см. в Атласе облаков (PDF).
T - Температура воздуха - температура, измеренная на высоте 2 м над землей.
Td - Температура точки росы - температура, при понижении до которой содержащийся в воздухе водяной пар достигнет насыщения.
f - Относительная влажность воздуха - влажноcть воздуха, измеренная на высоте 2 м над землей.
Te - Эффективная температура - температура, которую ощущает одетый по сезону человек в тени. Характеристика душности погоды. При расчете учитывается влияние влажности воздуха и скорости ветра на теплоощущения человека.
Tes - Эффективная температура на солнце - температура, которую ощущает человек, с поправкой на солнечный нагрев. Характеристика знойности погоды. Зависит от высоты солнца над горизонтом, облачности и скорости ветра. Ночью, в пасмурную погоду, а также при ветре 12 м/с и более поправка равна нулю.
P - Атмосферное давление - приведенное к уровню моря атмосферное давление.
Po - Атмосферное давление - измеренное на уровне метеостанции атмосферное давление.
Tmin - Минимальная температура - минимум температуры воздуха на высоте 2 м над землей.
Tmax - Максимальная температура - максимум температуры воздуха на высоте 2 м над землей.
R - Количество осадков - Количество выпавших осадков за период времени, мм. При наведении курсора мыши на число - период времени, за который выпало указанное количество осадков.
R24 - Количество осадков - Количество выпавших осадков за 24 часа, мм.
S - Снежный покров - Высота снежного покрова, см. При наведении курсора мыши на число - состояние снежного покрова и степень покрытия местности в баллах.